Weather History for Jefferson City, MO

Change the Weather History Date:

Monday, May 6, 2013

  Actual Average Record
Temperature  
Mean Temperature 63 °F -  
Max Temperature 73 °F 73 °F 91 °F (2014)
Min Temperature 54 °F 49 °F 33 °F (1944)
Degree Days  
Heating Degree Days 2    
Growing Degree Days 13 (Base 50)    
Moisture  
Dew Point 53 °F    
Average Humidity 75    
Maximum Humidity 97    
Minimum Humidity 41    
Precipitation  
Precipitation 0.00 in - - ()
Sea Level Pressure  
Sea Level Pressure 29.98 in    
Wind  
Wind Speed 7 mph (NW)    
Max Wind Speed 12 mph    
Max Gust Speed 22 mph    
Visibility 9 miles    
Events      
Averages and records for this station are not official NWS values.
T = Trace of Precipitation, MM = Missing Value Source: NWS Daily Summary

Daily Weather History Graph

Daily Weather History Graph

Search for Another Location

Airport:

Trip Planner

Search our weather history database for the weather conditions in past years. The results will help you decide how hot, cold, wet, or windy it might be!

Date:

Astronomy

May. 06, 2013 Rise Set
Actual Time 6:05 AM CDT 8:05 PM CDT
Civil Twilight 5:36 AM CDT 8:34 PM CDT
Nautical Twilight 5:00 AM CDT 9:10 PM CDT
Astronomical Twilight 4:22 AM CDT 9:48 PM CDT
Moon 4:05 AM CDT (5/6) 5:07 PM CDT (5/6)
Length of Visible Light 14h 58m
Length of Day
14h 00m
Waning Crescent, 11% of the Moon is Illuminated
May 6
Waning Crescent
May 9
New
May 17
First Quarter
May 24
Full
May 31
Last Quarter

Hourly Weather History & Observations

Time (CDT) Temp. Dew Point Humidity Pressure Visibility Wind Dir Wind Speed Gust Speed Precip Events Conditions
12:33 AM 55.4 °F 53.6 °F 94% 29.98 in 9.0 mi NW 6.9 mph - N/A   Overcast
12:53 AM 55.0 °F 53.1 °F 93% 29.96 in 9.0 mi NW 5.8 mph - N/A   Overcast
1:53 AM 54.0 °F 53.1 °F 97% 29.95 in 10.0 mi NW 4.6 mph - N/A   Mostly Cloudy
2:01 AM 55.4 °F 53.6 °F 94% 29.97 in 10.0 mi NW 3.5 mph - N/A   Mostly Cloudy
2:53 AM 55.0 °F 53.1 °F 93% 29.94 in 9.0 mi WNW 5.8 mph - N/A   Overcast
3:53 AM 55.0 °F 53.1 °F 93% 29.94 in 6.0 mi NW 5.8 mph - N/A   Overcast
4:53 AM 55.9 °F 53.1 °F 90% 29.94 in 5.0 mi NW 5.8 mph - N/A   Overcast
5:53 AM 57.0 °F 54.0 °F 89% 29.96 in 6.0 mi NNW 6.9 mph - N/A   Overcast
6:16 AM 57.2 °F 53.6 °F 88% 30.00 in 6.0 mi North 3.5 mph - N/A   Overcast
6:53 AM 57.0 °F 53.1 °F 87% 29.98 in 5.0 mi NW 3.5 mph - N/A   Mostly Cloudy
7:25 AM 57.2 °F 53.6 °F 88% 30.02 in 5.0 mi NNW 8.1 mph - N/A   Scattered Clouds
7:36 AM 57.2 °F 53.6 °F 88% 30.02 in 5.0 mi NNW 10.4 mph - N/A   Mostly Cloudy
7:53 AM 57.0 °F 53.1 °F 87% 30.00 in 6.0 mi NNW 6.9 mph - N/A   Mostly Cloudy
8:22 AM 57.2 °F 53.6 °F 88% 30.04 in 7.0 mi North 8.1 mph - N/A   Scattered Clouds
8:46 AM 59.0 °F 53.6 °F 82% 30.04 in 8.0 mi North 8.1 mph - N/A   Mostly Cloudy
8:53 AM 59.0 °F 53.1 °F 81% 30.01 in 9.0 mi North 8.1 mph - N/A   Mostly Cloudy
9:04 AM 57.2 °F 51.8 °F 82% 30.04 in 10.0 mi NNE 8.1 mph - N/A   Scattered Clouds
9:53 AM 61.0 °F 53.1 °F 75% 30.01 in 10.0 mi NW 5.8 mph - N/A   Partly Cloudy
10:48 AM 62.6 °F 53.6 °F 72% 30.03 in 10.0 mi West 9.2 mph - N/A   Mostly Cloudy
10:53 AM 62.1 °F 54.0 °F 75% 30.00 in 10.0 mi West 10.4 mph - N/A   Mostly Cloudy
11:12 AM 64.4 °F 55.4 °F 73% 30.03 in 10.0 mi West 11.5 mph - N/A   Scattered Clouds
11:53 AM 64.9 °F 53.1 °F 65% 29.99 in 10.0 mi WNW 10.4 mph - N/A   Scattered Clouds
12:53 PM 68.0 °F 53.1 °F 59% 29.98 in 10.0 mi NW 10.4 mph - N/A   Mostly Cloudy
1:53 PM 71.1 °F 46.0 °F 41% 29.97 in 10.0 mi NNE 5.8 mph 21.9 mph N/A   Mostly Cloudy
2:53 PM 72.0 °F 46.9 °F 41% 29.96 in 10.0 mi North 11.5 mph 21.9 mph N/A   Mostly Cloudy
3:53 PM 72.0 °F 46.9 °F 41% 29.94 in 10.0 mi North 10.4 mph 19.6 mph N/A   Overcast
4:53 PM 72.0 °F 46.9 °F 41% 29.94 in 10.0 mi North 8.1 mph - N/A   Overcast
5:53 PM 71.1 °F 48.0 °F 44% 29.94 in 10.0 mi NNW 6.9 mph - N/A   Overcast
6:53 PM 70.0 °F 50.0 °F 49% 29.94 in 10.0 mi WNW 3.5 mph - N/A   Overcast
7:53 PM 66.0 °F 55.0 °F 68% 29.95 in 10.0 mi WNW 4.6 mph - N/A   Overcast
8:53 PM 64.9 °F 55.9 °F 73% 29.96 in 10.0 mi Calm Calm - N/A   Overcast
9:53 PM 64.0 °F 55.0 °F 73% 29.97 in 10.0 mi Calm Calm - N/A   Overcast
10:53 PM 62.1 °F 55.0 °F 78% 29.99 in 10.0 mi WNW 4.6 mph - N/A   Overcast
11:53 PM 61.0 °F 55.0 °F 81% 29.99 in 10.0 mi NW 5.8 mph - N/A   Mostly Cloudy